CW8250 Weather Reports


time (UTC)temp
C
wind
direction
speed
KPH
gust
KPH
rain 1hr
cm
rain 24hr
cm
rain mn
cm
humidity
%
barometer
mb
20190422004457 8 82 0.0 0.0 0.00 0.00 0.00 72 1015.3
20190422004001 8 82 0.0 0.0 0.00 0.00 0.00 72 1015.3
20190422003456 8 82 0.0 0.0 0.00 0.00 0.00 71 1015.3
20190422003000 8 82 0.0 0.0 0.00 0.00 0.00 71 1015.3
20190422002456 8 82 0.0 0.0 0.00 0.00 0.00 71 1015.3
20190422001456 8 82 0.0 0.0 0.00 0.00 0.00 70 1015.6
20190422001001 8 82 0.0 0.0 0.00 0.00 0.00 69 1015.6
20190421235456 8 82 0.0 0.0 0.00 0.00 0.00 70 1015.6
20190421235001 8 82 0.0 0.0 0.00 0.00 0.00 70 1015.9
20190421233456 8 82 0.0 0.0 0.00 0.00 0.00 70 1015.9
20190421233001 8 82 0.0 0.0 0.00 0.00 0.00 71 1016.1
20190421232001 8 82 0.0 0.0 0.00 0.00 0.00 71 1016.1
20190421231456 8 82 0.0 0.0 0.00 0.00 0.00 71 1016.1
20190421231001 8 82 0.0 0.0 0.00 0.00 0.00 72 1016.1
20190421230456 8 82 0.0 0.0 0.00 0.00 0.00 72 1016.1
20190421225958 8 82 0.0 0.0 0.00 0.00 0.00 72 1016.2
20190421225457 8 82 0.0 0.0 0.00 0.00 0.00 73 1016.2
20190421224000 8 82 0.0 0.0 0.00 0.00 0.00 72 1016.2
20190421223001 9 82 0.0 0.0 0.00 0.00 0.00 72 1016.2
20190421222001 8 82 0.0 0.0 0.00 0.00 0.00 73 1016.2
20190421221457 8 82 0.0 0.0 0.00 0.00 0.00 72 1016.2
20190421221001 9 82 0.0 0.0 0.00 0.00 0.00 72 1016.3
20190421215957 9 82 0.0 0.0 0.00 0.00 0.00 72 1016.3
20190421215457 9 82 0.0 0.0 0.00 0.00 0.00 72 1016.3
20190421215001 9 82 0.0 0.0 0.00 0.00 0.00 71 1016.3
20190421214457 9 82 0.0 0.0 0.00 0.00 0.00 71 1016.3
20190421214001 9 82 0.0 0.0 0.00 0.00 0.00 71 1016.5
20190421213457 10 82 0.0 0.0 0.00 0.00 0.00 71 1016.5
20190421212457 10 82 0.0 0.0 0.00 0.00 0.00 69 1016.5
20190421212000 10 82 0.0 0.0 0.00 0.00 0.00 68 1016.5
20190421211457 10 82 0.0 0.0 0.00 0.00 0.00 67 1016.5
20190421211001 10 82 0.0 0.0 0.00 0.00 0.00 66 1016.5
20190421210456 10 82 0.0 0.0 0.00 0.00 0.00 66 1016.5
20190421205456 11 82 0.0 0.0 0.00 0.00 0.00 64 1016.6
20190421205000 11 82 0.0 0.0 0.00 0.00 0.00 63 1016.6
20190421204457 11 82 0.0 0.0 0.00 0.00 0.00 63 1016.7
20190421204001 11 82 0.0 0.0 0.00 0.00 0.00 62 1016.7
20190421203457 12 82 0.0 0.0 0.00 0.00 0.00 62 1016.7
20190421203000 12 82 0.0 0.0 0.00 0.00 0.00 61 1016.6
20190421202457 12 82 0.0 0.0 0.00 0.00 0.00 60 1016.8
20190421201456 12 82 0.0 0.0 0.00 0.00 0.00 59 1016.8
20190421200457 12 82 0.0 0.0 0.00 0.00 0.00 58 1016.8
20190421195957 12 82 0.0 0.0 0.00 0.00 0.00 56 1016.9
20190421195457 12 83 0.0 0.0 0.00 0.00 0.00 56 1016.9
20190421195001 12 83 0.0 0.0 0.00 0.00 0.00 55 1017.0
20190421194002 13 83 0.0 0.0 0.00 0.00 0.00 53 1016.9
20190421193457 14 83 0.0 0.0 0.00 0.00 0.00 51 1016.9
20190421193001 14 83 0.0 0.0 0.00 0.00 0.00 50 1016.9
20190421192001 15 83 0.0 0.0 0.00 0.00 0.00 46 1016.9
20190421191457 15 83 0.0 0.0 0.00 0.00 0.00 45 1016.9
20190421190959 15 83 0.0 0.0 0.00 0.00 0.00 44 1016.9
20190421190456 15 83 0.0 0.0 0.00 0.00 0.00 44 1016.8
20190421185457 16 83 0.0 0.0 0.00 0.00 0.00 43 1016.8
20190421185000 16 83 0.0 0.0 0.00 0.00 0.00 43 1016.8
20190421184457 16 83 0.0 0.0 0.00 0.00 0.00 41 1016.8
20190421184001 16 83 0.0 0.0 0.00 0.00 0.00 41 1016.8
20190421183456 17 83 0.0 0.0 0.00 0.00 0.00 40 1016.8
20190421183000 17 83 0.0 0.0 0.00 0.00 0.00 40 1016.8
20190421181001 19 83 0.0 0.0 0.00 0.00 0.00 39 1016.8
20190421180456 20 83 0.0 0.0 0.00 0.00 0.00 37 1016.8
20190421175957 20 83 0.0 0.0 0.00 0.00 0.00 36 1016.8
20190421175457 20 83 0.0 0.0 0.00 0.00 0.00 33 1016.8
20190421175000 20 83 1.6 3.2 0.00 0.00 0.00 34 1016.8
20190421174000 21 83 1.6 4.8 0.00 0.00 0.00 29 1016.8
20190421173457 21 75 1.6 3.2 0.00 0.00 0.00 32 1016.9
20190421172457 21 76 1.6 4.8 0.00 0.00 0.00 31 1017.1
20190421172000 22 74 1.6 8.0 0.00 0.00 0.00 32 1017.1
20190421171456 22 76 0.0 4.8 0.00 0.00 0.00 28 1017.1
20190421171000 22 76 3.2 4.8 0.00 0.00 0.00 28 1017.1
20190421165457 22 90 1.6 4.8 0.00 0.00 0.00 27 1017.2
20190421163456 23 113 0.0 0.0 0.00 0.00 0.00 28 1017.3
20190421162456 23 113 0.0 4.8 0.00 0.00 0.00 28 1017.6
20190421162000 23 113 0.0 4.8 0.00 0.00 0.00 27 1017.6
20190421161457 23 113 3.2 8.0 0.00 0.00 0.00 25 1017.6
20190421161000 23 109 1.6 9.7 0.00 0.00 0.00 26 1017.8
20190421155958 23 93 0.0 12.9 0.00 0.00 0.00 26 1018.1
20190421155457 23 73 4.8 8.0 0.00 0.00 0.00 24 1018.1
20190421155001 23 99 1.6 9.7 0.00 0.00 0.00 29 1018.1
20190421154457 23 103 1.6 9.7 0.00 0.00 0.00 25 1018.1
20190421154001 23 140 3.2 9.7 0.00 0.00 0.00 28 1018.1
20190421153457 23 69 3.2 8.0 0.00 0.00 0.00 26 1018.1
20190421153000 23 78 6.4 11.3 0.00 0.00 0.00 27 1018.1
20190421152457 23 67 1.6 4.8 0.00 0.00 0.00 27 1018.6
20190421152000 23 67 1.6 4.8 0.00 0.00 0.00 27 1018.6
20190421151000 23 100 1.6 9.7 0.00 0.00 0.00 28 1018.6
20190421150457 23 111 3.2 11.3 0.00 0.00 0.00 28 1018.6
20190421145457 23 142 3.2 11.3 0.00 0.00 0.00 29 1018.6
20190421144457 23 88 1.6 4.8 0.00 0.00 0.00 25 1018.6
20190421144001 23 81 3.2 8.0 0.00 0.00 0.00 26 1018.8
20190421143457 23 97 3.2 11.3 0.00 0.00 0.00 29 1018.8
20190421141001 23 69 1.6 11.3 0.00 0.00 0.00 27 1019.2
20190421140457 23 87 4.8 11.3 0.00 0.00 0.00 27 1019.2
20190421135001 23 65 4.8 11.3 0.00 0.00 0.00 28 1019.5
20190421134457 23 72 8.0 14.5 0.00 0.00 0.00 27 1019.5
20190421134001 23 104 3.2 4.8 0.00 0.00 0.00 31 1019.5
20190421133457 23 105 1.6 4.8 0.00 0.00 0.00 25 1019.6
20190421132001 23 97 3.2 4.8 0.00 0.00 0.00 30 1019.9
20190421130457 22 169 0.0 4.8 0.00 0.00 0.00 26 1020.2
20190421125957 22 186 1.6 4.8 0.00 0.00 0.00 33 1020.4
20190421125457 22 188 3.2 9.7 0.00 0.00 0.00 28 1020.4
20190421125001 22 116 3.2 11.3 0.00 0.00 0.00 31 1020.4
20190421124001 22 89 3.2 11.3 0.00 0.00 0.00 31 1020.7
20190421123001 22 82 8.0 19.3 0.00 0.00 0.00 30 1020.7
20190421122457 22 81 6.4 12.9 0.00 0.00 0.00 32 1020.8
20190421121002 22 137 1.6 12.9 0.00 0.00 0.00 31 1021.1
20190421120457 22 82 1.6 11.3 0.00 0.00 0.00 32 1021.1
20190421115001 21 115 4.8 9.7 0.00 0.00 0.00 36 1021.2
20190421113457 21 146 4.8 12.9 0.00 0.00 0.00 35 1021.2
20190421113001 21 117 0.0 9.7 0.00 0.00 0.00 33 1021.7
20190421112457 21 62 8.0 11.3 0.00 0.00 0.00 34 1021.7
20190421110456 21 101 3.2 12.9 0.00 0.00 0.00 34 1021.7
20190421105957 21 99 1.6 11.3 0.00 0.00 0.00 33 1021.8
20190421105457 21 100 3.2 11.3 0.00 0.00 0.00 37 1021.8
20190421105001 21 93 6.4 11.3 0.00 0.00 0.00 34 1021.9
20190421103458 20 97 4.8 19.3 0.00 0.00 0.00 39 1022.1
20190421103001 20 88 3.2 19.3 0.00 0.00 0.00 38 1022.2
20190421102457 20 87 8.0 12.9 0.00 0.00 0.00 38 1022.2
20190421101457 20 112 4.8 14.5 0.00 0.00 0.00 40 1022.3
20190421101001 20 96 4.8 16.1 0.00 0.00 0.00 41 1022.4
20190421100457 20 78 6.4 16.1 0.00 0.00 0.00 41 1022.4
20190421095457 19 146 4.8 12.9 0.00 0.00 0.00 43 1022.9
20190421095001 19 91 1.6 12.9 0.00 0.00 0.00 45 1022.9
20190421094457 18 69 3.2 9.7 0.00 0.00 0.00 44 1022.9
20190421094001 18 112 3.2 11.3 0.00 0.00 0.00 49 1022.9
20190421093001 17 84 8.0 11.3 0.00 0.00 0.00 47 1023.0
20190421092457 17 63 4.8 9.7 0.00 0.00 0.00 49 1023.0
20190421092001 17 67 4.8 9.7 0.00 0.00 0.00 49 1023.1
20190421091457 17 67 4.8 9.7 0.00 0.00 0.00 49 1023.3
20190421091001 17 69 4.8 9.7 0.00 0.00 0.00 50 1023.3
20190421085957 17 74 4.8 8.0 0.00 0.00 0.00 52 1023.3
20190421085457 16 74 4.8 9.7 0.00 0.00 0.00 53 1023.3
20190421085001 16 66 3.2 9.7 0.00 0.00 0.00 53 1023.4
20190421084001 16 71 4.8 11.3 0.00 0.00 0.00 55 1023.5
20190421083457 16 79 4.8 9.7 0.00 0.00 0.00 56 1023.8
20190421082001 15 63 4.8 8.0 0.00 0.00 0.00 57 1023.8
20190421081457 15 95 4.8 9.7 0.00 0.00 0.00 59 1023.8
20190421081001 15 67 4.8 8.0 0.00 0.00 0.00 60 1023.8
20190421075957 14 69 4.8 8.0 0.00 0.00 0.00 60 1023.8
20190421075457 14 72 4.8 11.3 0.00 0.00 0.00 61 1023.9
20190421074457 13 61 3.2 8.0 0.00 0.00 0.00 63 1024.0
20190421074001 13 74 4.8 9.7 0.00 0.00 0.00 63 1024.0
20190421073457 12 64 4.8 9.7 0.00 0.00 0.00 65 1024.1
20190421073002 12 73 4.8 8.0 0.00 0.00 0.00 65 1024.1
20190421072457 12 65 4.8 9.7 0.00 0.00 0.00 64 1024.1
20190421072001 12 95 4.8 8.0 0.00 0.00 0.00 65 1024.3
20190421071457 11 62 4.8 8.0 0.00 0.00 0.00 67 1024.3
20190421070457 11 56 3.2 8.0 0.00 0.00 0.00 67 1024.3
20190421065957 11 62 4.8 8.0 0.00 0.00 0.00 67 1024.3
20190421065457 10 62 3.2 8.0 0.00 0.00 0.00 69 1024.3
20190421065001 10 56 3.2 4.8 0.00 0.00 0.00 70 1024.3
20190421063001 8 74 4.8 9.7 0.00 0.00 0.00 73 1024.5
20190421062457 8 57 4.8 4.8 0.00 0.00 0.00 75 1024.5
20190421062002 8 62 3.2 4.8 0.00 0.00 0.00 77 1024.5
20190421061002 7 65 3.2 4.8 0.00 0.00 0.00 78 1024.5
20190421060458 7 60 3.2 8.0 0.00 0.00 0.00 78 1024.5
20190421055958 7 71 3.2 4.8 0.00 0.00 0.00 79 1024.5
20190421055457 6 71 1.6 4.8 0.00 0.00 0.00 81 1024.5
20190421054457 5 49 0.0 3.2 0.00 0.00 0.00 83 1024.5
20190421054001 5 61 0.0 0.0 0.00 0.00 0.00 84 1024.6
20190421053457 5 61 0.0 0.0 0.00 0.00 0.00 84 1024.6
20190421053001 4 61 0.0 0.0 0.00 0.00 0.00 84 1024.6
20190421052457 4 61 0.0 0.0 0.00 0.00 0.00 84 1024.7
20190421052002 3 60 0.0 0.0 0.00 0.00 0.00 84 1024.7
20190421051458 3 60 0.0 0.0 0.00 0.00 0.00 84 1024.7
20190421051001 3 60 0.0 0.0 0.00 0.00 0.00 84 1024.7
20190421050458 3 61 0.0 0.0 0.00 0.00 0.00 84 1024.8
20190421045957 3 61 0.0 4.8 0.00 0.00 0.00 84 1024.8
20190421045001 3 60 0.0 3.2 0.00 0.00 0.00 84 1024.8
20190421044458 3 59 0.0 3.2 0.00 0.00 0.00 84 1024.7
20190421043002 3 59 3.2 4.8 0.00 0.00 0.00 83 1025.2
20190421042457 3 58 1.6 4.8 0.00 0.00 0.00 83 1025.2
20190421041458 3 61 0.0 0.0 0.00 0.00 0.00 83 1025.2
20190421041001 3 61 0.0 0.0 0.00 0.00 0.00 82 1025.2
20190421040457 3 61 0.0 0.0 0.00 0.00 0.00 82 1025.2
20190421035959 3 61 0.0 0.0 0.00 0.00 0.00 82 1025.2
20190421035457 3 61 0.0 0.0 0.00 0.00 0.00 82 1025.2
20190421034001 4 61 0.0 0.0 0.00 0.00 0.00 82 1025.2
20190421033458 4 61 0.0 0.0 0.00 0.00 0.00 82 1025.2
20190421033001 4 61 0.0 0.0 0.00 0.00 0.00 82 1025.2
20190421032002 4 61 0.0 0.0 0.00 0.00 0.00 81 1025.4
20190421030458 5 61 3.2 4.8 0.00 0.00 0.00 81 1025.6
20190421025958 5 61 0.0 0.0 0.00 0.00 0.00 81 1025.6
20190421025002 5 61 0.0 0.0 0.00 0.00 0.00 81 1025.6
20190421024002 5 61 0.0 0.0 0.00 0.00 0.00 81 1026.0
20190421023458 5 61 0.0 0.0 0.00 0.00 0.00 82 1026.0
20190421023001 5 61 0.0 1.6 0.00 0.00 0.00 82 1026.0
20190421022457 5 61 0.0 3.2 0.00 0.00 0.00 82 1026.0
20190421022002 5 61 0.0 3.2 0.00 0.00 0.00 82 1026.0
20190421021458 5 61 0.0 0.0 0.00 0.00 0.00 82 1026.0
20190421020458 4 61 0.0 0.0 0.00 0.00 0.00 81 1026.1
20190421015958 5 61 0.0 0.0 0.00 0.00 0.00 81 1026.2
20190421015001 5 61 0.0 0.0 0.00 0.00 0.00 81 1026.4
20190421014002 5 61 0.0 0.0 0.00 0.00 0.00 80 1026.4
20190421013458 5 61 0.0 0.0 0.00 0.00 0.00 80 1026.4
20190421012002 5 61 0.0 0.0 0.00 0.00 0.00 80 1026.6
20190421011457 5 61 0.0 0.0 0.00 0.00 0.00 80 1026.6
20190421011003 5 61 0.0 0.0 0.00 0.00 0.00 80 1026.6